• în Republica Moldova
  • Lista ţărilor
  • Pe 7 zile
  • Temperatura apei
  • Hartă satelitară
  • Meteo pe hartă
  • Widget-uri
  • user-avatar
    Intrare

    Meteo pe oră la Shkoder

    Astăzi, 23 Aprilie, Duminică

    Timp Temperatura Precipitaţii Vânt Presiune Umiditate
    00:00 +5°C° 0 mm 1 m/s 741 mmHg 82%
    01:00 +5°C° 0 mm 1 m/s 740 mmHg 80%
    02:00 +5°C° 0 mm 1 m/s 740 mmHg 80%
    03:00 +5°C° 0 mm 1 m/s 740 mmHg 80%
    04:00 +5°C° 0 mm 1 m/s 740 mmHg 79%
    05:00 +7°C° 0 mm 1 m/s 740 mmHg 74%
    06:00 +9°C° 0 mm 1 m/s 740 mmHg 69%
    07:00 +11°C° 0 mm 1 m/s 740 mmHg 63%
    08:00 +12°C° 0 mm 1 m/s 740 mmHg 62%
    09:00 +13°C° 0 mm 2 m/s 740 mmHg 60%
    10:00 +15°C° 0 mm 2 m/s 741 mmHg 59%
    11:00 +15°C° 0,2 mm 2 m/s 741 mmHg 62%
    12:00 +15°C° 0,2 mm 2 m/s 741 mmHg 65%
    13:00 +14°C° 0,2 mm 3 m/s 741 mmHg 68%
    14:00 +14°C° 0,4 mm 2 m/s 741 mmHg 72%
    15:00 +13°C° 0,4 mm 2 m/s 742 mmHg 76%
    16:00 +13°C° 0,4 mm 1 m/s 742 mmHg 80%
    17:00 +12°C° 0,3 mm 1 m/s 742 mmHg 84%
    18:00 +11°C° 0,3 mm 1 m/s 742 mmHg 87%
    19:00 +10°C° 0,3 mm 1 m/s 743 mmHg 90%
    20:00 +9°C° 0,1 mm 1 m/s 743 mmHg 90%
    21:00 +9°C° 0,1 mm 1 m/s 744 mmHg 89%
    22:00 +9°C° 0,1 mm 1 m/s 744 mmHg 89%
    23:00 +8°C° 0 mm 1 m/s 744 mmHg 88%

    Mâine, 24 Aprilie, Luni

    Timp Temperatura Precipitaţii Vânt Presiune Umiditate
    00:00 +7°C° 0 mm 2 m/s 744 mmHg 87%
    01:00 +6°C° 0 mm 2 m/s 744 mmHg 86%
    02:00 +6°C° 0 mm 2 m/s 744 mmHg 85%
    03:00 +6°C° 0 mm 2 m/s 744 mmHg 84%
    04:00 +5°C° 0 mm 2 m/s 744 mmHg 83%
    05:00 +7°C° 0 mm 2 m/s 744 mmHg 80%
    06:00 +8°C° 0 mm 2 m/s 744 mmHg 77%
    07:00 +9°C° 0 mm 2 m/s 745 mmHg 74%
    08:00 +12°C° 0 mm 2 m/s 745 mmHg 67%
    09:00 +14°C° 0 mm 2 m/s 745 mmHg 60%
    10:00 +16°C° 0 mm 1 m/s 745 mmHg 53%
    11:00 +18°C° 0 mm 1 m/s 744 mmHg 52%
    12:00 +19°C° 0 mm 1 m/s 744 mmHg 51%
    13:00 +20°C° 0 mm 1 m/s 744 mmHg 49%
    14:00 +19°C° 0 mm 1 m/s 743 mmHg 52%
    15:00 +18°C° 0 mm 2 m/s 743 mmHg 54%
    16:00 +17°C° 0 mm 2 m/s 743 mmHg 57%
    17:00 +15°C° 0 mm 1 m/s 743 mmHg 66%
    18:00 +12°C° 0 mm 1 m/s 743 mmHg 75%
    19:00 +9°C° 0 mm 1 m/s 742 mmHg 85%
    20:00 +9°C° 0 mm 1 m/s 743 mmHg 85%
    21:00 +9°C° 0 mm 1 m/s 743 mmHg 85%
    22:00 +9°C° 0 mm 1 m/s 743 mmHg 86%
    23:00 +8°C° 0 mm 1 m/s 743 mmHg 85%

    Poimâine, 25 Aprilie, Marţi

    Timp Temperatura Precipitaţii Vânt Presiune Umiditate
    00:00 +8°C° 0 mm 1 m/s 743 mmHg 84%
    01:00 +8°C° 0 mm 1 m/s 743 mmHg 84%
    02:00 +8°C° 0 mm 1 m/s 743 mmHg 83%
    03:00 +8°C° 0 mm 1 m/s 743 mmHg 83%
    04:00 +8°C° 0 mm 1 m/s 743 mmHg 82%
    05:00 +10°C° 0 mm 1 m/s 742 mmHg 78%
    06:00 +12°C° 0 mm 1 m/s 742 mmHg 73%
    07:00 +14°C° 0 mm 2 m/s 742 mmHg 68%
    08:00 +15°C° 0 mm 2 m/s 742 mmHg 65%
    09:00 +17°C° 0 mm 2 m/s 742 mmHg 61%
    10:00 +18°C° 0 mm 3 m/s 742 mmHg 57%
    11:00 +18°C° 0 mm 3 m/s 742 mmHg 55%
    12:00 +19°C° 0 mm 3 m/s 742 mmHg 54%
    13:00 +19°C° 0 mm 3 m/s 741 mmHg 52%
    14:00 +19°C° 0 mm 3 m/s 741 mmHg 54%
    15:00 +18°C° 0 mm 3 m/s 741 mmHg 56%
    16:00 +18°C° 0 mm 3 m/s 740 mmHg 58%
    17:00 +14°C° 0 mm 3 m/s 740 mmHg 68%
    18:00 +13°C° 0 mm 2 m/s 740 mmHg 79%
    19:00 +10°C° 0 mm 2 m/s 740 mmHg 89%
    20:00 +9°C° 0 mm 2 m/s 741 mmHg 89%
    21:00 +9°C° 0 mm 2 m/s 741 mmHg 88%
    22:00 +8°C° 0 mm 2 m/s 741 mmHg 88%
    23:00 +9°C° 0 mm 1 m/s 741 mmHg 86%

    26 Aprilie, Miercuri

    Timp Temperatura Precipitaţii Vânt Presiune Umiditate
    00:00 +8°C° 0 mm 1 m/s 741 mmHg 84%
    01:00 +8°C° 0 mm 1 m/s 741 mmHg 82%
    02:00 +8°C° 0 mm 1 m/s 741 mmHg 81%
    03:00 +8°C° 0 mm 1 m/s 741 mmHg 81%
    04:00 +8°C° 0 mm 1 m/s 740 mmHg 81%
    05:00 +9°C° 0 mm 2 m/s 740 mmHg 73%
    06:00 +12°C° 0 mm 2 m/s 740 mmHg 66%
    07:00 +14°C° 0 mm 2 m/s 740 mmHg 59%
    08:00 +16°C° 0 mm 2 m/s 740 mmHg 52%
    09:00 +18°C° 0 mm 2 m/s 740 mmHg 46%
    10:00 +19°C° 0 mm 2 m/s 740 mmHg 39%
    11:00 +20°C° 0 mm 3 m/s 740 mmHg 38%
    12:00 +20°C° 0 mm 3 m/s 739 mmHg 37%
    13:00 +21°C° 0 mm 3 m/s 739 mmHg 36%
    14:00 +20°C° 0 mm 3 m/s 739 mmHg 39%
    15:00 +20°C° 0 mm 3 m/s 738 mmHg 42%
    16:00 +19°C° 0 mm 3 m/s 738 mmHg 45%
    17:00 +17°C° 0 mm 2 m/s 738 mmHg 56%
    18:00 +14°C° 0 mm 2 m/s 739 mmHg 67%
    19:00 +12°C° 0 mm 2 m/s 739 mmHg 77%
    20:00 +12°C° 0 mm 2 m/s 739 mmHg 76%
    21:00 +10°C° 0 mm 2 m/s 739 mmHg 75%
    22:00 +10°C° 0 mm 2 m/s 740 mmHg 74%
    23:00 +10°C° 0 mm 2 m/s 739 mmHg 73%

    27 Aprilie, Joi

    Timp Temperatura Precipitaţii Vânt Presiune Umiditate
    00:00 +10°C° 0 mm 2 m/s 739 mmHg 73%
    01:00 +12°C° 0 mm 2 m/s 739 mmHg 72%
    02:00 +10°C° 0 mm 2 m/s 739 mmHg 71%
    03:00 +10°C° 0 mm 2 m/s 739 mmHg 71%
    04:00 +10°C° 0 mm 2 m/s 738 mmHg 71%
    05:00 +13°C° 0 mm 2 m/s 738 mmHg 66%
    06:00 +15°C° 0 mm 2 m/s 738 mmHg 60%
    07:00 +18°C° 0 mm 2 m/s 738 mmHg 55%
    08:00 +19°C° 0 mm 2 m/s 738 mmHg 51%
    09:00 +20°C° 0 mm 3 m/s 738 mmHg 46%
    10:00 +22°C° 0 mm 3 m/s 738 mmHg 41%
    11:00 +22°C° 0 mm 3 m/s 738 mmHg 42%
    12:00 +22°C° 0 mm 3 m/s 738 mmHg 42%
    13:00 +23°C° 0 mm 4 m/s 737 mmHg 42%
    14:00 +22°C° 0 mm 3 m/s 737 mmHg 45%
    15:00 +22°C° 0 mm 3 m/s 737 mmHg 47%
    16:00 +21°C° 0 mm 3 m/s 737 mmHg 49%
    17:00 +19°C° 0 mm 3 m/s 737 mmHg 55%
    18:00 +18°C° 0 mm 2 m/s 737 mmHg 61%
    19:00 +16°C° 0 mm 2 m/s 737 mmHg 67%
    20:00 +16°C° 0 mm 2 m/s 737 mmHg 66%
    21:00 +15°C° 0 mm 2 m/s 737 mmHg 66%
    22:00 +15°C° 0 mm 2 m/s 736 mmHg 65%
    23:00 +15°C° 0,2 mm 2 m/s 736 mmHg 66%

    28 Aprilie, Vineri

    Timp Temperatura Precipitaţii Vânt Presiune Umiditate
    00:00 +15°C° 0,2 mm 2 m/s 736 mmHg 67%
    01:00 +15°C° 0,2 mm 2 m/s 736 mmHg 67%
    02:00 +15°C° 0,1 mm 2 m/s 736 mmHg 68%
    03:00 +14°C° 0,1 mm 2 m/s 735 mmHg 69%
    04:00 +14°C° 0,1 mm 2 m/s 735 mmHg 70%
    05:00 +14°C° 0,3 mm 3 m/s 735 mmHg 70%
    06:00 +14°C° 0,3 mm 3 m/s 735 mmHg 70%
    07:00 +14°C° 0,3 mm 4 m/s 735 mmHg 71%
    08:00 +14°C° 1,3 mm 4 m/s 735 mmHg 75%
    09:00 +14°C° 1,3 mm 4 m/s 735 mmHg 80%
    10:00 +14°C° 1,3 mm 4 m/s 735 mmHg 85%
    11:00 +15°C° 1,5 mm 4 m/s 734 mmHg 83%
    12:00 +15°C° 1,5 mm 4 m/s 734 mmHg 82%
    13:00 +15°C° 1,5 mm 4 m/s 734 mmHg 81%
    14:00 +14°C° 3,1 mm 3 m/s 734 mmHg 85%
    15:00 +14°C° 3,1 mm 3 m/s 734 mmHg 89%
    16:00 +14°C° 3,1 mm 2 m/s 734 mmHg 93%
    17:00 +14°C° 2,1 mm 2 m/s 734 mmHg 94%
    18:00 +13°C° 2,1 mm 2 m/s 734 mmHg 94%
    19:00 +13°C° 2,1 mm 1 m/s 734 mmHg 95%
    20:00 +13°C° 2,1 mm 1 m/s 734 mmHg 95%
    21:00 +13°C° 2,1 mm 1 m/s 734 mmHg 96%
    22:00 +12°C° 2,1 mm 1 m/s 734 mmHg 96%
    23:00 +12°C° 1,8 mm 1 m/s 734 mmHg 96%
    Arată mai mult